| time (UTC) | temp C | wind direction | speed KPH | gust KPH | rain 1hr cm | rain 24hr cm | rain mn cm | humidity % | barometer mb |
| 20260506023715 | 21 | 184 | 8.0 | 24.1 | 0.00 | 0.00 | 0.00 | 66 | 1014.9 |
| 20260506023216 | 21 | 149 | 8.0 | 14.5 | 0.00 | 0.00 | 0.00 | 66 | 1014.9 |
| 20260506022505 | 21 | 173 | 4.8 | 27.4 | 0.00 | 0.00 | 0.00 | 65 | 1014.9 |
| 20260506022005 | 21 | 170 | 3.2 | 20.9 | 0.00 | 0.00 | 0.00 | 65 | 1014.8 |
| 20260506021504 | 21 | 213 | 4.8 | 19.3 | 0.00 | 0.00 | 0.00 | 65 | 1014.7 |
| 20260506021216 | 21 | 188 | 3.2 | 22.5 | 0.00 | 0.00 | 0.00 | 64 | 1014.6 |
| 20260506020506 | 22 | 206 | 6.4 | 16.1 | 0.00 | 0.00 | 0.00 | 64 | 1014.5 |
| 20260506020005 | 22 | 161 | 4.8 | 11.3 | 0.00 | 0.00 | 0.00 | 63 | 1014.4 |
| 20260506015504 | 22 | 118 | 1.6 | 19.3 | 0.00 | 0.00 | 0.00 | 63 | 1014.4 |
| 20260506015004 | 21 | 183 | 4.8 | 19.3 | 0.00 | 0.00 | 0.00 | 62 | 1014.3 |
| 20260506014505 | 21 | 197 | 4.8 | 19.3 | 0.00 | 0.00 | 0.00 | 62 | 1014.3 |
| 20260506014007 | 21 | 252 | 6.4 | 14.5 | 0.00 | 0.00 | 0.00 | 61 | 1014.4 |
| 20260506013716 | 21 | 225 | 3.2 | 12.9 | 0.00 | 0.00 | 0.00 | 61 | 1014.3 |
| 20260506013217 | 21 | 255 | 3.2 | 9.7 | 0.00 | 0.00 | 0.00 | 60 | 1014.2 |
| 20260506012506 | 21 | 204 | 1.6 | 8.0 | 0.00 | 0.00 | 0.00 | 60 | 1014.1 |
| 20260506012217 | 22 | 218 | 3.2 | 9.7 | 0.00 | 0.00 | 0.00 | 60 | 1014.2 |
| 20260506011716 | 22 | 243 | 3.2 | 9.7 | 0.00 | 0.00 | 0.00 | 60 | 1014.1 |
| 20260506011005 | 22 | 216 | 3.2 | 11.3 | 0.00 | 0.00 | 0.00 | 59 | 1014.0 |
| 20260506010718 | 22 | 242 | 1.6 | 8.0 | 0.00 | 0.00 | 0.00 | 59 | 1014.0 |
| 20260506010217 | 22 | 221 | 1.6 | 4.8 | 0.00 | 0.00 | 0.00 | 58 | 1014.0 |
| 20260506005506 | 22 | 228 | 8.0 | 19.3 | 0.00 | 0.00 | 0.00 | 58 | 1013.9 |
| 20260506005005 | 22 | 202 | 4.8 | 11.3 | 0.00 | 0.00 | 0.00 | 57 | 1013.8 |
| 20260506004505 | 22 | 170 | 1.6 | 4.8 | 0.00 | 0.00 | 0.00 | 57 | 1013.7 |
| 20260506004005 | 22 | 224 | 1.6 | 4.8 | 0.00 | 0.00 | 0.00 | 56 | 1013.6 |
| 20260506003506 | 22 | 231 | 1.6 | 9.7 | 0.00 | 0.00 | 0.00 | 56 | 1013.6 |
| 20260506003217 | 22 | 216 | 3.2 | 8.0 | 0.00 | 0.00 | 0.00 | 55 | 1013.6 |
| 20260506002504 | 23 | 208 | 1.6 | 4.8 | 0.00 | 0.00 | 0.00 | 55 | 1013.5 |
| 20260506002006 | 23 | 198 | 3.2 | 4.8 | 0.00 | 0.00 | 0.00 | 54 | 1013.5 |
| 20260506001506 | 23 | 222 | 1.6 | 9.7 | 0.00 | 0.00 | 0.00 | 54 | 1013.5 |
| 20260506001007 | 23 | 216 | 3.2 | 9.7 | 0.00 | 0.00 | 0.00 | 54 | 1013.5 |
| 20260506000717 | 23 | 198 | 3.2 | 12.9 | 0.00 | 0.00 | 0.00 | 54 | 1013.4 |
| 20260506000006 | 23 | 252 | 4.8 | 12.9 | 0.00 | 0.00 | 0.00 | 52 | 1013.4 |
| 20260505235505 | 23 | 240 | 4.8 | 12.9 | 0.00 | 0.00 | 0.00 | 52 | 1013.4 |
| 20260505235007 | 23 | 250 | 3.2 | 9.7 | 0.00 | 0.00 | 0.00 | 52 | 1013.3 |
| 20260505234505 | 23 | 213 | 3.2 | 19.3 | 0.00 | 0.00 | 0.00 | 50 | 1013.3 |
| 20260505234006 | 24 | 207 | 3.2 | 11.3 | 0.00 | 0.00 | 0.00 | 49 | 1013.2 |
| 20260505233505 | 24 | 213 | 3.2 | 16.1 | 0.00 | 0.00 | 0.00 | 49 | 1013.3 |
| 20260505233218 | 24 | 256 | 4.8 | 19.3 | 0.00 | 0.00 | 0.00 | 48 | 1013.3 |
| 20260505232504 | 25 | 204 | 4.8 | 32.2 | 0.00 | 0.00 | 0.00 | 47 | 1013.2 |
| 20260505232005 | 25 | 241 | 4.8 | 19.3 | 0.00 | 0.00 | 0.00 | 48 | 1013.3 |
| 20260505231504 | 25 | 162 | 3.2 | 20.9 | 0.00 | 0.00 | 0.00 | 48 | 1013.2 |
| 20260505231006 | 25 | 240 | 16.1 | 27.4 | 0.00 | 0.00 | 0.00 | 47 | 1013.2 |
| 20260505230505 | 25 | 217 | 6.4 | 14.5 | 0.00 | 0.00 | 0.00 | 46 | 1013.1 |
| 20260505230006 | 26 | 214 | 4.8 | 11.3 | 0.00 | 0.00 | 0.00 | 45 | 1013.0 |
| 20260505225506 | 26 | 220 | 8.0 | 19.3 | 0.00 | 0.00 | 0.00 | 43 | 1013.1 |
| 20260505225005 | 26 | 225 | 4.8 | 16.1 | 0.00 | 0.00 | 0.00 | 42 | 1013.1 |
| 20260505224506 | 26 | 248 | 4.8 | 25.7 | 0.00 | 0.00 | 0.00 | 42 | 1012.9 |
| 20260505224006 | 27 | 238 | 9.7 | 24.1 | 0.00 | 0.00 | 0.00 | 41 | 1013.0 |
| 20260505223505 | 27 | 234 | 6.4 | 24.1 | 0.00 | 0.00 | 0.00 | 40 | 1013.1 |
| 20260505223007 | 27 | 218 | 9.7 | 29.0 | 0.00 | 0.00 | 0.00 | 40 | 1013.0 |
| 20260505222505 | 27 | 234 | 6.4 | 19.3 | 0.00 | 0.00 | 0.00 | 40 | 1012.9 |
| 20260505222005 | 27 | 231 | 8.0 | 19.3 | 0.00 | 0.00 | 0.00 | 40 | 1012.9 |
| 20260505221716 | 26 | 96 | 3.2 | 19.3 | 0.00 | 0.00 | 0.00 | 41 | 1012.9 |
| 20260505221006 | 27 | 247 | 8.0 | 22.5 | 0.00 | 0.00 | 0.00 | 39 | 1013.0 |
| 20260505220505 | 27 | 247 | 4.8 | 16.1 | 0.00 | 0.00 | 0.00 | 39 | 1012.9 |
| 20260505220006 | 27 | 277 | 8.0 | 27.4 | 0.00 | 0.00 | 0.00 | 39 | 1013.0 |
| 20260505215504 | 27 | 250 | 14.5 | 29.0 | 0.00 | 0.00 | 0.00 | 37 | 1012.8 |
| 20260505215007 | 27 | 188 | 9.7 | 32.2 | 0.00 | 0.00 | 0.00 | 36 | 1012.8 |
| 20260505214505 | 27 | 152 | 4.8 | 22.5 | 0.00 | 0.00 | 0.00 | 36 | 1012.8 |
| 20260505214005 | 28 | 183 | 6.4 | 27.4 | 0.00 | 0.00 | 0.00 | 35 | 1012.9 |
| 20260505213506 | 28 | 213 | 9.7 | 35.4 | 0.00 | 0.00 | 0.00 | 36 | 1012.9 |
| 20260505213006 | 27 | 213 | 4.8 | 19.3 | 0.00 | 0.00 | 0.00 | 36 | 1012.9 |
| 20260505212716 | 27 | 232 | 11.3 | 24.1 | 0.00 | 0.00 | 0.00 | 36 | 1012.8 |
| 20260505212005 | 27 | 211 | 4.8 | 24.1 | 0.00 | 0.00 | 0.00 | 36 | 1012.8 |
| 20260505211505 | 28 | 239 | 9.7 | 24.1 | 0.00 | 0.00 | 0.00 | 34 | 1012.7 |
| 20260505211006 | 29 | 232 | 8.0 | 20.9 | 0.00 | 0.00 | 0.00 | 33 | 1012.7 |
| 20260505210504 | 29 | 256 | 4.8 | 24.1 | 0.00 | 0.00 | 0.00 | 33 | 1012.7 |
| 20260505210006 | 29 | 240 | 11.3 | 40.2 | 0.00 | 0.00 | 0.00 | 32 | 1012.8 |
| 20260505205716 | 29 | 217 | 11.3 | 25.7 | 0.00 | 0.00 | 0.00 | 32 | 1012.7 |
| 20260505205215 | 30 | 188 | 4.8 | 22.5 | 0.00 | 0.00 | 0.00 | 31 | 1012.7 |
| 20260505204505 | 30 | 213 | 9.7 | 22.5 | 0.00 | 0.00 | 0.00 | 31 | 1012.6 |
| 20260505204005 | 30 | 235 | 9.7 | 32.2 | 0.00 | 0.00 | 0.00 | 31 | 1012.6 |
| 20260505203506 | 30 | 222 | 8.0 | 22.5 | 0.00 | 0.00 | 0.00 | 32 | 1012.6 |
| 20260505203217 | 30 | 241 | 9.7 | 25.7 | 0.00 | 0.00 | 0.00 | 31 | 1012.6 |
| 20260505202716 | 30 | 346 | 4.8 | 25.7 | 0.00 | 0.00 | 0.00 | 33 | 1012.7 |
| 20260505202217 | 30 | 211 | 16.1 | 45.1 | 0.00 | 0.00 | 0.00 | 32 | 1012.6 |
| 20260505201505 | 30 | 225 | 3.2 | 19.3 | 0.00 | 0.00 | 0.00 | 32 | 1012.8 |
| 20260505201005 | 30 | 233 | 11.3 | 27.4 | 0.00 | 0.00 | 0.00 | 30 | 1012.9 |
| 20260505200506 | 30 | 185 | 8.0 | 22.5 | 0.00 | 0.00 | 0.00 | 32 | 1013.0 |
| 20260505200006 | 30 | 199 | 9.7 | 24.1 | 0.00 | 0.00 | 0.00 | 31 | 1012.9 |
| 20260505195506 | 31 | 133 | 4.8 | 22.5 | 0.00 | 0.00 | 0.00 | 31 | 1012.9 |
| 20260505195215 | 30 | 332 | 8.0 | 25.7 | 0.00 | 0.00 | 0.00 | 32 | 1013.1 |
| 20260505194715 | 30 | 265 | 9.7 | 32.2 | 0.00 | 0.00 | 0.00 | 31 | 1013.2 |
| 20260505194006 | 30 | 216 | 6.4 | 16.1 | 0.00 | 0.00 | 0.00 | 32 | 1013.1 |
| 20260505193715 | 30 | 252 | 11.3 | 27.4 | 0.00 | 0.00 | 0.00 | 32 | 1013.3 |
| 20260505193007 | 30 | 181 | 4.8 | 24.1 | 0.00 | 0.00 | 0.00 | 32 | 1013.3 |
| 20260505192505 | 30 | 110 | 3.2 | 24.1 | 0.00 | 0.00 | 0.00 | 33 | 1013.4 |
| 20260505192216 | 30 | 171 | 4.8 | 22.5 | 0.00 | 0.00 | 0.00 | 32 | 1013.5 |
| 20260505191505 | 29 | 248 | 12.9 | 27.4 | 0.00 | 0.00 | 0.00 | 32 | 1013.6 |
| 20260505191216 | 30 | 221 | 4.8 | 19.3 | 0.00 | 0.00 | 0.00 | 33 | 1013.8 |
| 20260505190505 | 30 | 163 | 4.8 | 24.1 | 0.00 | 0.00 | 0.00 | 34 | 1013.8 |
| 20260505190006 | 29 | 231 | 4.8 | 19.3 | 0.00 | 0.00 | 0.00 | 33 | 1013.9 |
| 20260505185716 | 30 | 254 | 4.8 | 22.5 | 0.00 | 0.00 | 0.00 | 33 | 1014.0 |
| 20260505185005 | 29 | 232 | 8.0 | 24.1 | 0.00 | 0.00 | 0.00 | 33 | 1014.0 |
| 20260505184506 | 28 | 232 | 11.3 | 22.5 | 0.00 | 0.00 | 0.00 | 34 | 1014.1 |
| 20260505184006 | 28 | 171 | 12.9 | 27.4 | 0.00 | 0.00 | 0.00 | 33 | 1014.0 |
| 20260505183505 | 30 | 176 | 8.0 | 27.4 | 0.00 | 0.00 | 0.00 | 33 | 1014.2 |
| 20260505183008 | 29 | 244 | 8.0 | 25.7 | 0.00 | 0.00 | 0.00 | 35 | 1014.2 |
| 20260505182506 | 29 | 191 | 4.8 | 24.1 | 0.00 | 0.00 | 0.00 | 34 | 1014.3 |
| 20260505182005 | 30 | 263 | 8.0 | 22.5 | 0.00 | 0.00 | 0.00 | 34 | 1014.4 |
| 20260505181505 | 30 | 236 | 11.3 | 25.7 | 0.00 | 0.00 | 0.00 | 33 | 1014.3 |
| 20260505181006 | 29 | 271 | 11.3 | 22.5 | 0.00 | 0.00 | 0.00 | 33 | 1014.4 |
| 20260505180715 | 29 | 218 | 4.8 | 22.5 | 0.00 | 0.00 | 0.00 | 34 | 1014.5 |
| 20260505180005 | 28 | 77 | 8.0 | 24.1 | 0.00 | 0.00 | 0.00 | 34 | 1014.4 |
| 20260505175504 | 29 | 172 | 11.3 | 22.5 | 0.00 | 0.00 | 0.00 | 34 | 1014.5 |
| 20260505175005 | 28 | 148 | 6.4 | 20.9 | 0.00 | 0.00 | 0.00 | 34 | 1014.4 |
| 20260505174505 | 28 | 297 | 4.8 | 20.9 | 0.00 | 0.00 | 0.00 | 34 | 1014.5 |
| 20260505174216 | 27 | 256 | 11.3 | 29.0 | 0.00 | 0.00 | 0.00 | 36 | 1014.5 |
| 20260505173506 | 27 | 237 | 12.9 | 25.7 | 0.00 | 0.00 | 0.00 | 37 | 1014.6 |
| 20260505173216 | 27 | 264 | 6.4 | 22.5 | 0.00 | 0.00 | 0.00 | 37 | 1014.5 |
| 20260505172717 | 27 | 219 | 6.4 | 29.0 | 0.00 | 0.00 | 0.00 | 37 | 1014.6 |
| 20260505172006 | 28 | 255 | 4.8 | 16.1 | 0.00 | 0.00 | 0.00 | 38 | 1014.6 |
| 20260505171505 | 28 | 266 | 8.0 | 22.5 | 0.00 | 0.00 | 0.00 | 38 | 1014.6 |
| 20260505171216 | 28 | 249 | 9.7 | 25.7 | 0.00 | 0.00 | 0.00 | 39 | 1014.7 |
| 20260505170506 | 28 | 256 | 9.7 | 19.3 | 0.00 | 0.00 | 0.00 | 39 | 1014.7 |
| 20260505170005 | 28 | 76 | 3.2 | 20.9 | 0.00 | 0.00 | 0.00 | 40 | 1014.8 |
| 20260505165714 | 26 | 245 | 6.4 | 24.1 | 0.00 | 0.00 | 0.00 | 42 | 1014.8 |
| 20260505165215 | 28 | 240 | 9.7 | 22.5 | 0.00 | 0.00 | 0.00 | 41 | 1014.9 |
| 20260505164504 | 27 | 222 | 3.2 | 20.9 | 0.00 | 0.00 | 0.00 | 40 | 1015.1 |
| 20260505164005 | 27 | 216 | 8.0 | 20.9 | 0.00 | 0.00 | 0.00 | 42 | 1015.3 |
| 20260505163504 | 27 | 272 | 3.2 | 12.9 | 0.00 | 0.00 | 0.00 | 42 | 1015.3 |
| 20260505163215 | 27 | 232 | 4.8 | 22.5 | 0.00 | 0.00 | 0.00 | 42 | 1015.4 |
| 20260505162505 | 28 | 228 | 4.8 | 12.9 | 0.00 | 0.00 | 0.00 | 43 | 1015.4 |
| 20260505162215 | 26 | 109 | 1.6 | 14.5 | 0.00 | 0.00 | 0.00 | 45 | 1015.6 |
| 20260505161505 | 26 | 241 | 3.2 | 16.1 | 0.00 | 0.00 | 0.00 | 44 | 1015.6 |
| 20260505161006 | 27 | 211 | 8.0 | 24.1 | 0.00 | 0.00 | 0.00 | 44 | 1015.7 |
| 20260505160505 | 27 | 247 | 3.2 | 20.9 | 0.00 | 0.00 | 0.00 | 45 | 1015.7 |
| 20260505153006 | 26 | 210 | 3.2 | 12.9 | 0.00 | 0.00 | 0.00 | 48 | 1015.7 |
| 20260505152504 | 24 | 222 | 9.7 | 20.9 | 0.00 | 0.00 | 0.00 | 51 | 1015.8 |
| 20260505152215 | 24 | 263 | 9.7 | 32.2 | 0.00 | 0.00 | 0.00 | 50 | 1015.8 |
| 20260505151505 | 25 | 220 | 11.3 | 16.1 | 0.00 | 0.00 | 0.00 | 50 | 1015.8 |
| 20260505151215 | 24 | 194 | 3.2 | 20.9 | 0.00 | 0.00 | 0.00 | 52 | 1015.8 |
| 20260505150506 | 25 | 262 | 4.8 | 19.3 | 0.00 | 0.00 | 0.00 | 51 | 1015.8 |
| 20260505140505 | 21 | 243 | 12.9 | 22.5 | 0.00 | 0.00 | 0.00 | 57 | 1016.1 |
| 20260505130216 | 19 | 206 | 8.0 | 14.5 | 0.00 | 0.00 | 0.00 | 66 | 1016.5 |
| 20260505125005 | 19 | 238 | 6.4 | 16.1 | 0.00 | 0.00 | 0.00 | 65 | 1016.4 |
| 20260505124216 | 18 | 277 | 9.7 | 24.1 | 0.00 | 0.00 | 0.00 | 69 | 1016.6 |
| 20260505123505 | 18 | 223 | 8.0 | 19.3 | 0.00 | 0.00 | 0.00 | 69 | 1016.5 |
| 20260505123005 | 18 | 224 | 4.8 | 14.5 | 0.00 | 0.00 | 0.00 | 71 | 1016.7 |
| 20260505122505 | 17 | 261 | 8.0 | 19.3 | 0.00 | 0.00 | 0.00 | 71 | 1016.7 |
| 20260505122216 | 17 | 279 | 4.8 | 24.1 | 0.00 | 0.00 | 0.00 | 71 | 1016.6 |
| 20260505121504 | 17 | 299 | 4.8 | 16.1 | 0.00 | 0.00 | 0.00 | 72 | 1016.4 |
| 20260505121006 | 17 | 236 | 4.8 | 16.1 | 0.00 | 0.00 | 0.00 | 73 | 1016.5 |
| 20260505120717 | 17 | 237 | 14.5 | 27.4 | 0.00 | 0.00 | 0.00 | 74 | 1016.6 |
| 20260505120008 | 16 | 232 | 9.7 | 20.9 | 0.00 | 0.00 | 0.00 | 75 | 1016.6 |
| 20260505115505 | 16 | 245 | 8.0 | 20.9 | 0.00 | 0.00 | 0.00 | 76 | 1016.6 |
| 20260505115006 | 16 | 248 | 8.0 | 16.1 | 0.00 | 0.00 | 0.00 | 77 | 1016.6 |
| 20260505114506 | 16 | 225 | 8.0 | 19.3 | 0.00 | 0.00 | 0.00 | 78 | 1016.5 |
| 20260505114005 | 16 | 266 | 9.7 | 25.7 | 0.00 | 0.00 | 0.00 | 78 | 1016.5 |
| 20260505113504 | 16 | 235 | 6.4 | 20.9 | 0.00 | 0.00 | 0.00 | 78 | 1016.5 |
| 20260505113006 | 15 | 157 | 4.8 | 14.5 | 0.00 | 0.00 | 0.00 | 79 | 1016.4 |
| 20260505112504 | 15 | 247 | 11.3 | 22.5 | 0.00 | 0.00 | 0.00 | 79 | 1016.5 |
| 20260505112217 | 15 | 247 | 9.7 | 19.3 | 0.00 | 0.00 | 0.00 | 79 | 1016.4 |
| 20260505111505 | 15 | 248 | 4.8 | 12.9 | 0.00 | 0.00 | 0.00 | 81 | 1016.4 |
| 20260505111006 | 15 | 248 | 3.2 | 16.1 | 0.00 | 0.00 | 0.00 | 80 | 1016.3 |
| 20260505110505 | 15 | 234 | 8.0 | 14.5 | 0.00 | 0.00 | 0.00 | 81 | 1016.2 |
| 20260505102215 | 14 | 239 | 4.8 | 12.9 | 0.00 | 0.00 | 0.00 | 82 | 1016.1 |
| 20260505101505 | 15 | 224 | 4.8 | 14.5 | 0.00 | 0.00 | 0.00 | 81 | 1016.1 |
| 20260505101217 | 15 | 233 | 4.8 | 12.9 | 0.00 | 0.00 | 0.00 | 81 | 1016.0 |
| 20260505100507 | 15 | 248 | 4.8 | 12.9 | 0.00 | 0.00 | 0.00 | 81 | 1015.9 |
| 20260505100006 | 15 | 242 | 4.8 | 11.3 | 0.00 | 0.00 | 0.00 | 81 | 1015.9 |
| 20260505095716 | 15 | 211 | 3.2 | 19.3 | 0.00 | 0.00 | 0.00 | 80 | 1015.9 |
| 20260505095217 | 15 | 224 | 4.8 | 19.3 | 0.00 | 0.00 | 0.00 | 79 | 1015.7 |
| 20260505094504 | 15 | 248 | 8.0 | 16.1 | 0.00 | 0.00 | 0.00 | 79 | 1015.6 |
| 20260505094215 | 15 | 234 | 6.4 | 12.9 | 0.00 | 0.00 | 0.00 | 79 | 1015.6 |
| 20260505093506 | 15 | 245 | 8.0 | 20.9 | 0.00 | 0.00 | 0.00 | 78 | 1015.6 |
| 20260505093006 | 15 | 235 | 4.8 | 16.1 | 0.00 | 0.00 | 0.00 | 79 | 1015.6 |
| 20260505092505 | 15 | 249 | 4.8 | 16.1 | 0.00 | 0.00 | 0.00 | 78 | 1015.6 |
| 20260505092005 | 15 | 240 | 9.7 | 19.3 | 0.00 | 0.00 | 0.00 | 78 | 1015.6 |
| 20260505091505 | 15 | 232 | 8.0 | 19.3 | 0.00 | 0.00 | 0.00 | 78 | 1015.5 |
| 20260505091215 | 15 | 245 | 4.8 | 14.5 | 0.00 | 0.00 | 0.00 | 78 | 1015.5 |
| 20260505090507 | 15 | 251 | 8.0 | 16.1 | 0.00 | 0.00 | 0.00 | 78 | 1015.4 |
| 20260505090006 | 15 | 233 | 4.8 | 12.9 | 0.00 | 0.00 | 0.00 | 78 | 1015.3 |
| 20260505085715 | 16 | 278 | 4.8 | 14.5 | 0.00 | 0.00 | 0.00 | 77 | 1015.3 |
| 20260505085007 | 16 | 241 | 6.4 | 16.1 | 0.00 | 0.00 | 0.00 | 77 | 1015.3 |
| 20260505084506 | 16 | 247 | 6.4 | 19.3 | 0.00 | 0.00 | 0.00 | 77 | 1015.3 |
| 20260505084006 | 16 | 249 | 8.0 | 16.1 | 0.00 | 0.00 | 0.00 | 77 | 1015.4 |
| 20260505083504 | 16 | 255 | 8.0 | 19.3 | 0.00 | 0.00 | 0.00 | 76 | 1015.3 |
| 20260505083006 | 16 | 255 | 8.0 | 12.9 | 0.00 | 0.00 | 0.00 | 76 | 1015.4 |
| 20260505082504 | 16 | 242 | 3.2 | 14.5 | 0.00 | 0.00 | 0.00 | 76 | 1015.4 |
| 20260505082214 | 16 | 249 | 9.7 | 14.5 | 0.00 | 0.00 | 0.00 | 76 | 1015.4 |
| 20260505081505 | 16 | 201 | 8.0 | 20.9 | 0.00 | 0.00 | 0.00 | 76 | 1015.4 |
| 20260505081216 | 16 | 243 | 9.7 | 19.3 | 0.00 | 0.00 | 0.00 | 76 | 1015.4 |
| 20260505080505 | 16 | 234 | 6.4 | 16.1 | 0.00 | 0.00 | 0.00 | 76 | 1015.3 |
| 20260505080006 | 16 | 225 | 8.0 | 14.5 | 0.00 | 0.00 | 0.00 | 76 | 1015.2 |
| 20260505075505 | 16 | 254 | 4.8 | 14.5 | 0.00 | 0.00 | 0.00 | 76 | 1015.2 |
| 20260505075216 | 16 | 271 | 8.0 | 20.9 | 0.00 | 0.00 | 0.00 | 75 | 1015.2 |
| 20260505074504 | 16 | 224 | 4.8 | 22.5 | 0.00 | 0.00 | 0.00 | 76 | 1015.2 |
| 20260505074007 | 16 | 266 | 6.4 | 14.5 | 0.00 | 0.00 | 0.00 | 76 | 1015.2 |
| 20260505073506 | 16 | 256 | 4.8 | 9.7 | 0.00 | 0.00 | 0.00 | 76 | 1015.1 |
| 20260505073006 | 16 | 324 | 4.8 | 11.3 | 0.00 | 0.00 | 0.00 | 75 | 1015.0 |
| 20260505072504 | 16 | 231 | 9.7 | 22.5 | 0.00 | 0.00 | 0.00 | 75 | 1014.9 |
| 20260505072007 | 16 | 271 | 4.8 | 19.3 | 0.00 | 0.00 | 0.00 | 75 | 1014.9 |
| 20260505071505 | 16 | 253 | 9.7 | 24.1 | 0.00 | 0.00 | 0.00 | 76 | 1014.9 |
| 20260505071216 | 16 | 259 | 3.2 | 22.5 | 0.00 | 0.00 | 0.00 | 75 | 1014.9 |
| 20260505070507 | 16 | 233 | 8.0 | 14.5 | 0.00 | 0.00 | 0.00 | 75 | 1014.8 |
| 20260505070006 | 16 | 233 | 9.7 | 22.5 | 0.00 | 0.00 | 0.00 | 75 | 1014.8 |
| 20260505065506 | 16 | 214 | 8.0 | 19.3 | 0.00 | 0.00 | 0.00 | 75 | 1014.7 |
| 20260505065216 | 16 | 232 | 9.7 | 19.3 | 0.00 | 0.00 | 0.00 | 75 | 1014.7 |
| 20260505064505 | 16 | 233 | 6.4 | 16.1 | 0.00 | 0.00 | 0.00 | 74 | 1014.7 |
| 20260505064007 | 16 | 258 | 8.0 | 19.3 | 0.00 | 0.00 | 0.00 | 74 | 1014.8 |
| 20260505063717 | 17 | 232 | 4.8 | 16.1 | 0.00 | 0.00 | 0.00 | 74 | 1014.8 |
| 20260505063005 | 17 | 248 | 6.4 | 20.9 | 0.00 | 0.00 | 0.00 | 74 | 1014.7 |
| 20260505062505 | 17 | 226 | 6.4 | 16.1 | 0.00 | 0.00 | 0.00 | 73 | 1014.8 |
| 20260505062216 | 17 | 249 | 6.4 | 22.5 | 0.00 | 0.00 | 0.00 | 73 | 1014.8 |
| 20260505061505 | 17 | 249 | 4.8 | 22.5 | 0.00 | 0.00 | 0.00 | 73 | 1014.8 |
| 20260505061004 | 17 | 243 | 4.8 | 25.7 | 0.00 | 0.00 | 0.00 | 72 | 1014.8 |
| 20260505060506 | 17 | 231 | 9.7 | 25.7 | 0.00 | 0.00 | 0.00 | 71 | 1014.8 |
| 20260505060215 | 17 | 238 | 8.0 | 19.3 | 0.00 | 0.00 | 0.00 | 72 | 1014.8 |
| 20260505055504 | 17 | 62 | 3.2 | 19.3 | 0.00 | 0.00 | 0.00 | 72 | 1014.9 |
| 20260505055006 | 17 | 235 | 8.0 | 22.5 | 0.00 | 0.00 | 0.00 | 71 | 1014.8 |
| 20260505054716 | 17 | 233 | 9.7 | 25.7 | 0.00 | 0.00 | 0.00 | 72 | 1014.8 |
| 20260505054005 | 17 | 255 | 9.7 | 22.5 | 0.00 | 0.00 | 0.00 | 71 | 1014.8 |
| 20260505053505 | 17 | 254 | 6.4 | 22.5 | 0.00 | 0.00 | 0.00 | 73 | 1014.8 |
| 20260505053217 | 17 | 235 | 9.7 | 22.5 | 0.00 | 0.00 | 0.00 | 72 | 1014.9 |
| 20260505052716 | 17 | 234 | 9.7 | 20.9 | 0.00 | 0.00 | 0.00 | 72 | 1014.9 |
| 20260505052006 | 17 | 239 | 9.7 | 22.5 | 0.00 | 0.00 | 0.00 | 72 | 1014.8 |
| 20260505051505 | 17 | 189 | 4.8 | 16.1 | 0.00 | 0.00 | 0.00 | 72 | 1014.9 |
| 20260505051006 | 17 | 235 | 9.7 | 20.9 | 0.00 | 0.00 | 0.00 | 72 | 1014.8 |
| 20260505050716 | 17 | 212 | 4.8 | 20.9 | 0.00 | 0.00 | 0.00 | 72 | 1014.8 |
| 20260505041716 | 18 | 261 | 4.8 | 19.3 | 0.00 | 0.00 | 0.00 | 72 | 1014.7 |
| 20260505041006 | 18 | 248 | 4.8 | 20.9 | 0.00 | 0.00 | 0.00 | 71 | 1014.7 |
| 20260505040506 | 17 | 235 | 4.8 | 22.5 | 0.00 | 0.00 | 0.00 | 71 | 1014.7 |
| 20260505040221 | 17 | 211 | 4.8 | 16.1 | 0.00 | 0.00 | 0.00 | 71 | 1014.5 |
| 20260505035505 | 18 | 153 | 6.4 | 20.9 | 0.00 | 0.00 | 0.00 | 70 | 1014.4 |
| 20260505035215 | 18 | 228 | 6.4 | 12.9 | 0.00 | 0.00 | 0.00 | 69 | 1014.5 |
| 20260505034505 | 18 | 268 | 3.2 | 14.5 | 0.00 | 0.00 | 0.00 | 68 | 1014.5 |
| 20260505034006 | 18 | 232 | 6.4 | 22.5 | 0.00 | 0.00 | 0.00 | 67 | 1014.5 |
| 20260505033507 | 18 | 188 | 3.2 | 12.9 | 0.00 | 0.00 | 0.00 | 66 | 1014.4 |
| 20260505033007 | 18 | 170 | 3.2 | 22.5 | 0.00 | 0.00 | 0.00 | 65 | 1014.3 |
| 20260505032504 | 18 | 246 | 6.4 | 19.3 | 0.00 | 0.00 | 0.00 | 64 | 1014.4 |
| 20260505032217 | 18 | 218 | 4.8 | 22.5 | 0.00 | 0.00 | 0.00 | 63 | 1014.3 |
| 20260505031715 | 18 | 250 | 4.8 | 22.5 | 0.00 | 0.00 | 0.00 | 61 | 1014.3 |
| 20260505031006 | 18 | 191 | 3.2 | 20.9 | 0.00 | 0.00 | 0.00 | 60 | 1014.3 |
| 20260505030505 | 18 | 220 | 3.2 | 12.9 | 0.00 | 0.00 | 0.00 | 59 | 1014.3 |
| 20260505030006 | 18 | 201 | 4.8 | 12.9 | 0.00 | 0.00 | 0.00 | 59 | 1014.3 |
| 20260505025506 | 18 | 212 | 4.8 | 16.1 | 0.00 | 0.00 | 0.00 | 58 | 1014.3 |
| 20260505025216 | 17 | 240 | 1.6 | 8.0 | 0.00 | 0.00 | 0.00 | 60 | 1014.2 |
| 20260505024505 | 18 | 195 | 3.2 | 4.8 | 0.00 | 0.00 | 0.00 | 59 | 1014.1 |
| 20260505024005 | 18 | 237 | 3.2 | 9.7 | 0.00 | 0.00 | 0.00 | 58 | 1014.1 |